Home > Weather > Stamford > Past weeks

Flag for U.S.A. Weather for the Past 2 Weeks in Stamford, Connecticut, U.S.A.

Now
20 °F

Passing clouds.


Feels Like: 0 °F
Forecast: 17 / 25 °F
Wind: 35 mph from Northwest

Location: Westchester County Airport

Current Time: Feb 11, 2016 at 6:44:43 PM

Latest Report: Feb 11, 2016 at 5:56 PM


Visibility: 10 mi

Pressure: 30.02 "Hg

Humidity: 36%

Dew point: -3 °F

Location of StamfordLocation

Historic Weather in Stamford — Graph

°F

Stamford Temperature Yesterday

Maximum temperature yesterday: 37 °F (at 11:56 AM)
Minimum temperature yesterday: 28 °F (at 12:56 AM)
Average temperature yesterday: 33 °F

High & Low Weather Summary for the Past Weeks

 TemperatureHumidityPressure
High57 °F (Feb 1, 11:56 AM)97% (Feb 3, 6:56 PM)30.42 "Hg (Feb 3, 6:56 PM)
Low20 °F (Feb 11, 6:56 AM)30% (Jan 31, 2:56 PM)29.43 "Hg (Jan 29, 12:58 PM)
Average36 °F64%29.94 "Hg
* Reported Jan 27 5:56 PM — Feb 11 5:56 PM, Stamford, Weather by CustomWeather, © 2016

Note: Actual official high and low records may vary slightly from our data, if they occured in-between our weather recording intervals... More about our weather records

Advertising

Stamford Weather History for the Previous 24 Hours

 ConditionsComfort  
Time TempWeatherWind HumidityBarometerVisibility
5:56 PM
Thu, Feb 11
20 °FPassing clouds.35 mph36%30.02 "Hg10 mi
3:56 PM21 °FPartly sunny.25 mph36%29.93 "Hg10 mi
2:56 PM21 °FPartly sunny.30 mph40%29.90 "Hg10 mi
1:56 PM23 °FBroken clouds.23 mph38%29.88 "Hg10 mi
12:56 PM24 °FBroken clouds.28 mph35%29.86 "Hg10 mi
11:56 AM22 °FBroken clouds.23 mph40%29.88 "Hg10 mi
10:56 AM22 °FBroken clouds.20 mph38%29.88 "Hg10 mi
9:56 AM21 °FScattered clouds.20 mph40%29.88 "Hg10 mi
8:56 AM21 °FPassing clouds.20 mph40%29.87 "Hg10 mi
7:56 AM20 °FPassing clouds.21 mph41%29.85 "Hg10 mi
6:56 AM20 °FPassing clouds.16 mph48%29.83 "Hg10 mi
5:56 AM21 °FPassing clouds.20 mph47%29.80 "Hg10 mi
4:56 AM23 °FPassing clouds.17 mph48%29.77 "Hg10 mi
3:56 AM24 °FPassing clouds.22 mph52%29.75 "Hg10 mi
2:56 AM25 °FIce fog.16 mph63%29.74 "Hg3 mi
1:56 AM27 °FLight snow. Ice fog.14 mph75%29.73 "Hg3 mi
12:56 AM30 °FMostly cloudy.10 mph61%29.72 "Hg10 mi
11:56 PM
Wed, Feb 10
30 °FPassing clouds.12 mph59%29.72 "Hg10 mi
10:56 PM31 °FPassing clouds.8 mph57%29.72 "Hg10 mi
9:56 PM31 °FPassing clouds.7 mph57%29.71 "Hg9 mi
8:56 PM33 °FLight snow. Overcast.6 mph52%29.70 "Hg9 mi
7:56 PM34 °FPassing clouds.6 mph52%29.69 "Hg10 mi
6:56 PM34 °FPassing clouds.6 mph52%29.70 "Hg10 mi
Weather by CustomWeather, © 2016

See weather overviewHow to use our weather pages